Time,TemperatureF,DewpointF,PressureIn,WindDirection,WindDirectionDegrees,WindSpeedMPH,WindSpeedGustMPH,Humidity,HourlyPrecipIn,Conditions,Clouds,dailyrainin,SoftwareType,DateUTC
2013-03-21 00:00:00,50.7,34.2,29.91,NNW,340,0.0,13.0,53,0.00,,,0.00,Wunderground v.1.13,2013-03-21 05:00:00,
2013-03-21 00:10:00,50.5,34.0,29.92,NW,322,1.0,1.0,53,0.00,,,0.00,Wunderground v.1.13,2013-03-21 05:10:00,
2013-03-21 00:20:00,50.4,33.9,29.92,NW,322,0.0,13.0,53,0.00,,,0.00,Wunderground v.1.13,2013-03-21 05:20:00,
2013-03-21 00:30:00,50.2,34.2,29.91,NW,322,0.0,13.0,54,0.00,,,0.00,Wunderground v.1.13,2013-03-21 05:30:00,
2013-03-21 00:40:00,49.6,34.5,29.91,NW,322,0.0,13.0,56,0.00,,,0.00,Wunderground v.1.13,2013-03-21 05:40:00,
2013-03-21 00:50:00,49.1,34.1,29.91,NW,322,0.0,13.0,56,0.00,,,0.00,Wunderground v.1.13,2013-03-21 05:50:00,
2013-03-21 01:00:00,48.5,34.8,29.91,NW,322,0.0,13.0,59,0.00,,,0.00,Wunderground v.1.13,2013-03-21 06:00:00,
2013-03-21 01:10:00,47.6,35.6,29.92,NW,322,0.0,13.0,63,0.00,,,0.00,Wunderground v.1.13,2013-03-21 06:10:00,
2013-03-21 01:20:00,46.5,36.1,29.92,NW,322,0.0,13.0,67,0.00,,,0.00,Wunderground v.1.13,2013-03-21 06:20:00,
2013-03-21 01:30:00,45.5,35.9,29.92,NW,322,0.0,13.0,69,0.00,,,0.00,Wunderground v.1.13,2013-03-21 06:30:00,
2013-03-21 01:40:00,44.7,35.5,29.91,NW,322,0.0,13.0,70,0.00,,,0.00,Wunderground v.1.13,2013-03-21 06:40:00,
2013-03-21 01:50:00,44.3,35.8,29.91,NW,322,0.0,13.0,72,0.00,,,0.00,Wunderground v.1.13,2013-03-21 06:50:00,
2013-03-21 02:00:00,44.2,34.7,29.91,NW,322,0.0,13.0,69,0.00,,,0.00,Wunderground v.1.13,2013-03-21 07:00:00,
2013-03-21 02:10:00,44.5,34.6,29.91,NW,324,0.0,13.0,68,0.00,,,0.00,Wunderground v.1.13,2013-03-21 07:10:00,
2013-03-21 02:20:00,46.3,34.4,29.92,NW,325,1.0,1.0,63,0.00,,,0.00,Wunderground v.1.13,2013-03-21 07:20:00,
2013-03-21 02:30:00,47.1,34.7,29.92,NW,320,0.0,13.0,62,0.00,,,0.00,Wunderground v.1.13,2013-03-21 07:30:00,
2013-03-21 02:40:00,47.3,34.5,29.92,NNE,24,1.0,1.0,61,0.00,,,0.00,Wunderground v.1.13,2013-03-21 07:40:00,
2013-03-21 02:50:00,47.3,34.1,29.91,North,5,1.0,1.0,60,0.00,,,0.00,Wunderground v.1.13,2013-03-21 07:50:00,
2013-03-21 03:00:00,47.6,34.4,29.92,North,355,2.0,13.0,60,0.00,,,0.00,Wunderground v.1.13,2013-03-21 08:00:00,
2013-03-21 03:10:00,47.7,34.1,29.91,NE,39,2.0,2.0,59,0.00,,,0.00,Wunderground v.1.13,2013-03-21 08:10:00,
2013-03-21 03:20:00,47.5,34.7,29.91,North,10,1.0,13.0,61,0.00,,,0.00,Wunderground v.1.13,2013-03-21 08:20:00,
2013-03-21 03:30:00,47.1,34.7,29.91,North,355,1.0,13.0,62,0.00,,,0.00,Wunderground v.1.13,2013-03-21 08:30:00,
2013-03-21 03:40:00,46.7,34.4,29.91,North,360,1.0,13.0,62,0.00,,,0.00,Wunderground v.1.13,2013-03-21 08:40:00,
2013-03-21 03:50:00,46.7,34.4,29.91,NNW,329,2.0,13.0,62,0.00,,,0.00,Wunderground v.1.13,2013-03-21 08:50:00,
2013-03-21 04:00:00,46.7,34.4,29.91,NW,313,2.0,2.0,62,0.00,,,0.00,Wunderground v.1.13,2013-03-21 09:00:00,
2013-03-21 04:10:00,46.6,34.3,29.91,NNW,338,1.0,13.0,62,0.00,,,0.00,Wunderground v.1.13,2013-03-21 09:10:00,
2013-03-21 04:20:00,46.5,34.2,29.91,North,355,2.0,13.0,62,0.00,,,0.00,Wunderground v.1.13,2013-03-21 09:20:00,
2013-03-21 04:30:00,46.3,34.0,29.92,North,355,1.0,13.0,62,0.00,,,0.00,Wunderground v.1.13,2013-03-21 09:30:00,
2013-03-21 04:40:00,46.2,34.3,29.92,NNE,26,1.0,13.0,63,0.00,,,0.00,Wunderground v.1.13,2013-03-21 09:40:00,
2013-03-21 04:50:00,46.0,34.5,29.92,NNE,13,1.0,13.0,64,0.00,,,0.00,Wunderground v.1.13,2013-03-21 09:50:00,
2013-03-21 05:00:00,46.0,34.5,29.92,North,360,1.0,1.0,64,0.00,,,0.00,Wunderground v.1.13,2013-03-21 10:00:00,
2013-03-21 05:10:00,45.9,34.8,29.92,NE,48,1.0,1.0,65,0.00,,,0.00,Wunderground v.1.13,2013-03-21 10:10:00,
2013-03-21 05:20:00,45.7,34.2,29.92,NNE,24,1.0,1.0,64,0.00,,,0.00,Wunderground v.1.13,2013-03-21 10:20:00,
2013-03-21 05:30:00,45.7,34.2,29.92,North,5,1.0,1.0,64,0.00,,,0.00,Wunderground v.1.13,2013-03-21 10:30:00,
2013-03-21 05:40:00,45.5,34.4,29.92,North,5,0.0,13.0,65,0.00,,,0.00,Wunderground v.1.13,2013-03-21 10:40:00,
2013-03-21 05:50:00,45.4,34.3,29.92,NNE,26,1.0,1.0,65,0.00,,,0.00,Wunderground v.1.13,2013-03-21 10:50:00,
2013-03-21 06:00:00,45.1,34.4,29.92,NNE,25,0.0,13.0,66,0.00,,,0.00,Wunderground v.1.13,2013-03-21 11:00:00,
2013-03-21 06:10:00,44.9,34.2,29.93,NNE,25,0.0,13.0,66,0.00,,,0.00,Wunderground v.1.13,2013-03-21 11:10:00,
2013-03-21 06:20:00,44.6,34.3,29.93,NNE,25,0.0,13.0,67,0.00,,,0.00,Wunderground v.1.13,2013-03-21 11:20:00,
2013-03-21 06:30:00,44.3,34.0,29.93,NNE,25,0.0,13.0,67,0.00,,,0.00,Wunderground v.1.13,2013-03-21 11:30:00,
2013-03-21 06:40:00,44.1,34.2,29.93,NNE,25,0.0,13.0,68,0.00,,,0.00,Wunderground v.1.13,2013-03-21 11:40:00,
2013-03-21 06:50:00,43.9,34.0,29.93,NNE,25,0.0,13.0,68,0.00,,,0.00,Wunderground v.1.13,2013-03-21 11:50:00,
2013-03-21 07:00:00,43.8,34.6,29.93,NNE,25,0.0,13.0,70,0.00,,,0.00,Wunderground v.1.13,2013-03-21 12:00:00,
2013-03-21 07:10:00,43.8,35.0,29.93,NNE,25,0.0,13.0,71,0.00,,,0.00,Wunderground v.1.13,2013-03-21 12:10:00,
2013-03-21 07:20:00,43.9,35.5,29.93,NNE,25,0.0,13.0,72,0.00,,,0.00,Wunderground v.1.13,2013-03-21 12:20:00,
2013-03-21 07:30:00,44.2,35.4,29.94,NNE,25,0.0,13.0,71,0.00,,,0.00,Wunderground v.1.13,2013-03-21 12:30:00,
2013-03-21 07:40:00,44.6,36.1,29.94,NNE,25,0.0,13.0,72,0.00,,,0.00,Wunderground v.1.13,2013-03-21 12:40:00,
2013-03-21 07:50:00,45.0,35.8,29.94,NNE,26,0.0,13.0,70,0.00,,,0.00,Wunderground v.1.13,2013-03-21 12:50:00,
2013-03-21 08:00:00,45.4,35.1,29.94,NNE,25,0.0,13.0,67,0.00,,,0.00,Wunderground v.1.13,2013-03-21 13:00:00,
2013-03-21 08:10:00,46.3,35.2,29.95,NE,34,1.0,1.0,65,0.00,,,0.00,Wunderground v.1.13,2013-03-21 13:10:00,
2013-03-21 08:20:00,48.1,36.1,29.96,NNE,30,0.0,13.0,63,0.00,,,0.00,Wunderground v.1.13,2013-03-21 13:20:00,
2013-03-21 08:30:00,49.9,36.1,29.95,NE,54,0.0,13.0,59,0.00,,,0.00,Wunderground v.1.13,2013-03-21 13:30:00,
2013-03-21 08:40:00,50.9,34.8,29.96,NE,34,1.0,1.0,54,0.00,,,0.00,Wunderground v.1.13,2013-03-21 13:40:00,
2013-03-21 08:50:00,52.1,36.4,29.97,NE,39,1.0,1.0,55,0.00,,,0.00,Wunderground v.1.13,2013-03-21 13:50:00,
2013-03-21 09:00:00,52.4,35.8,29.97,ENE,63,1.0,1.0,53,0.00,,,0.00,Wunderground v.1.13,2013-03-21 14:00:00,
2013-03-21 09:10:00,53.1,34.9,29.97,NE,45,2.0,2.0,50,0.00,,,0.00,Wunderground v.1.13,2013-03-21 14:10:00,
2013-03-21 09:20:00,54.1,34.3,29.97,ENE,61,1.0,13.0,47,0.00,,,0.00,Wunderground v.1.13,2013-03-21 14:20:00,
2013-03-21 09:30:00,55.1,33.6,29.97,ENE,58,2.0,2.0,44,0.00,,,0.00,Wunderground v.1.13,2013-03-21 14:30:00,
2013-03-21 09:40:00,55.0,29.8,29.97,NE,46,4.0,4.0,38,0.00,,,0.00,Wunderground v.1.13,2013-03-21 14:40:00,
2013-03-21 09:50:00,55.3,32.0,29.98,North,355,3.0,13.0,41,0.00,,,0.00,Wunderground v.1.13,2013-03-21 14:50:00,
2013-03-21 10:00:00,55.9,32.5,29.98,NNW,345,2.0,2.0,41,0.00,,,0.00,Wunderground v.1.13,2013-03-21 15:00:00,
2013-03-21 10:10:00,56.8,33.3,29.98,North,9,2.0,2.0,41,0.00,,,0.00,Wunderground v.1.13,2013-03-21 15:10:00,
2013-03-21 10:20:00,57.3,33.2,29.98,North,360,3.0,3.0,40,0.00,,,0.00,Wunderground v.1.13,2013-03-21 15:20:00,
2013-03-21 10:30:00,57.8,31.7,29.98,NNE,26,4.0,4.0,37,0.00,,,0.00,Wunderground v.1.13,2013-03-21 15:30:00,
2013-03-21 10:40:00,57.7,30.9,29.97,NW,311,5.0,5.0,36,0.00,,,0.00,Wunderground v.1.13,2013-03-21 15:40:00,
2013-03-21 10:50:00,57.8,32.3,29.97,NE,40,4.0,4.0,38,0.00,,,0.00,Wunderground v.1.13,2013-03-21 15:50:00,
2013-03-21 11:00:00,58.2,32.0,29.97,ENE,63,4.0,13.0,37,0.00,,,0.00,Wunderground v.1.13,2013-03-21 16:00:00,
2013-03-21 11:10:00,58.4,30.8,29.96,NW,304,4.0,4.0,35,0.00,,,0.00,Wunderground v.1.13,2013-03-21 16:10:00,
2013-03-21 11:20:00,58.9,30.6,29.96,NNE,21,2.0,13.0,34,0.00,,,0.00,Wunderground v.1.13,2013-03-21 16:20:00,
2013-03-21 11:30:00,59.0,33.4,29.95,NE,34,3.0,3.0,38,0.00,,,0.00,Wunderground v.1.13,2013-03-21 16:30:00,
2013-03-21 11:40:00,60.8,35.7,29.95,North,5,1.0,13.0,39,0.00,,,0.00,Wunderground v.1.13,2013-03-21 16:40:00,
2013-03-21 11:50:00,61.4,34.2,29.95,NNE,21,2.0,2.0,36,0.00,,,0.00,Wunderground v.1.13,2013-03-21 16:50:00,
2013-03-21 12:00:00,61.3,31.9,29.95,NNE,28,3.0,3.0,33,0.00,,,0.00,Wunderground v.1.13,2013-03-21 17:00:00,
2013-03-21 12:10:00,61.0,30.1,29.94,North,355,4.0,4.0,31,0.00,,,0.00,Wunderground v.1.13,2013-03-21 17:10:00,
2013-03-21 12:20:00,61.8,32.4,29.93,NNE,22,3.0,3.0,33,0.00,,,0.00,Wunderground v.1.13,2013-03-21 17:20:00,
2013-03-21 12:30:00,62.3,32.0,29.93,North,9,4.0,4.0,32,0.00,,,0.00,Wunderground v.1.13,2013-03-21 17:30:00,
2013-03-21 12:40:00,62.3,32.0,29.92,West,275,3.0,3.0,32,0.00,,,0.00,Wunderground v.1.13,2013-03-21 17:40:00,
2013-03-21 12:50:00,62.4,31.3,29.92,NW,309,3.0,3.0,31,0.00,,,0.00,Wunderground v.1.13,2013-03-21 17:50:00,
2013-03-21 13:00:00,62.5,31.4,29.92,NNE,26,3.0,3.0,31,0.00,,,0.00,Wunderground v.1.13,2013-03-21 18:00:00,
2013-03-21 13:10:00,63.4,31.4,29.92,NNW,327,3.0,3.0,30,0.00,,,0.00,Wunderground v.1.13,2013-03-21 18:10:00,
2013-03-21 13:20:00,63.3,30.5,29.91,North,9,3.0,3.0,29,0.00,,,0.00,Wunderground v.1.13,2013-03-21 18:20:00,
2013-03-21 13:30:00,64.8,34.2,29.90,WNW,282,3.0,13.0,32,0.00,,,0.00,Wunderground v.1.13,2013-03-21 18:30:00,
2013-03-21 13:40:00,64.5,33.2,29.90,North,360,4.0,13.0,31,0.00,,,0.00,Wunderground v.1.13,2013-03-21 18:40:00,
2013-03-21 13:50:00,64.8,31.8,29.90,NW,309,4.0,4.0,29,0.00,,,0.00,Wunderground v.1.13,2013-03-21 18:50:00,
2013-03-21 14:00:00,65.0,30.2,29.90,WNW,283,4.0,13.0,27,0.00,,,0.00,Wunderground v.1.13,2013-03-21 19:00:00,
2013-03-21 14:10:00,64.0,29.3,29.89,NNW,337,4.0,13.0,27,0.00,,,0.00,Wunderground v.1.13,2013-03-21 19:10:00,
2013-03-21 14:20:00,63.3,28.7,29.89,NNW,329,4.0,4.0,27,0.00,,,0.00,Wunderground v.1.13,2013-03-21 19:20:00,
2013-03-21 14:30:00,62.9,27.5,29.89,WNW,302,3.0,13.0,26,0.00,,,0.00,Wunderground v.1.13,2013-03-21 19:30:00,
2013-03-21 14:40:00,62.7,29.1,29.88,NE,43,3.0,3.0,28,0.00,,,0.00,Wunderground v.1.13,2013-03-21 19:40:00,
2013-03-21 14:50:00,63.2,28.6,29.88,NW,319,2.0,2.0,27,0.00,,,0.00,Wunderground v.1.13,2013-03-21 19:50:00,
2013-03-21 15:00:00,64.1,32.0,29.88,WNW,286,1.0,13.0,30,0.00,,,0.00,Wunderground v.1.13,2013-03-21 20:00:00,
2013-03-21 15:10:00,65.3,30.4,29.88,NNW,346,2.0,2.0,27,0.00,,,0.00,Wunderground v.1.13,2013-03-21 20:10:00,
2013-03-21 15:20:00,66.2,31.2,29.88,NW,306,1.0,1.0,27,0.00,,,0.00,Wunderground v.1.13,2013-03-21 20:20:00,
2013-03-21 15:30:00,66.3,28.4,29.87,NNW,331,2.0,13.0,24,0.00,,,0.00,Wunderground v.1.13,2013-03-21 20:30:00,
2013-03-21 15:40:00,66.1,33.7,29.86,NNW,342,2.0,13.0,30,0.00,,,0.00,Wunderground v.1.13,2013-03-21 20:40:00,
2013-03-21 15:50:00,66.8,33.5,29.86,NNW,327,2.0,13.0,29,0.00,,,0.00,Wunderground v.1.13,2013-03-21 20:50:00,
2013-03-21 16:00:00,66.7,29.7,29.86,NNW,327,3.0,3.0,25,0.00,,,0.00,Wunderground v.1.13,2013-03-21 21:00:00,
2013-03-21 16:10:00,67.3,31.2,29.85,WNW,298,3.0,13.0,26,0.00,,,0.00,Wunderground v.1.13,2013-03-21 21:10:00,
2013-03-21 16:20:00,67.1,29.1,29.85,NE,34,3.0,3.0,24,0.00,,,0.00,Wunderground v.1.13,2013-03-21 21:20:00,
2013-03-21 16:30:00,67.5,29.4,29.85,WNW,289,1.0,13.0,24,0.00,,,0.00,Wunderground v.1.13,2013-03-21 21:30:00,
2013-03-21 16:40:00,67.6,31.5,29.84,North,355,1.0,13.0,26,0.00,,,0.00,Wunderground v.1.13,2013-03-21 21:40:00,
2013-03-21 16:50:00,67.3,29.2,29.84,NNW,348,2.0,13.0,24,0.00,,,0.00,Wunderground v.1.13,2013-03-21 21:50:00,
2013-03-21 17:00:00,67.4,30.3,29.84,North,5,1.0,1.0,25,0.00,,,0.00,Wunderground v.1.13,2013-03-21 22:00:00,
2013-03-21 17:10:00,67.4,29.3,29.84,NNE,32,1.0,13.0,24,0.00,,,0.00,Wunderground v.1.13,2013-03-21 22:10:00,
2013-03-21 17:20:00,67.2,29.2,29.84,NE,47,1.0,1.0,24,0.00,,,0.00,Wunderground v.1.13,2013-03-21 22:20:00,
2013-03-21 17:30:00,67.3,28.2,29.84,NE,46,0.0,13.0,23,0.00,,,0.00,Wunderground v.1.13,2013-03-21 22:30:00,
2013-03-21 17:40:00,66.9,28.9,29.84,NE,49,1.0,1.0,24,0.00,,,0.00,Wunderground v.1.13,2013-03-21 22:40:00,
2013-03-21 17:50:00,66.7,27.7,29.84,NNE,22,0.0,13.0,23,0.00,,,0.00,Wunderground v.1.13,2013-03-21 22:50:00,
2013-03-21 18:00:00,66.2,27.3,29.84,NNE,26,1.0,13.0,23,0.00,,,0.00,Wunderground v.1.13,2013-03-21 23:00:00,
2013-03-21 18:10:00,65.9,29.1,29.84,NNE,23,1.0,1.0,25,0.00,,,0.00,Wunderground v.1.13,2013-03-21 23:10:00,
2013-03-21 18:20:00,65.6,29.8,29.84,NNE,24,0.0,13.0,26,0.00,,,0.00,Wunderground v.1.13,2013-03-21 23:20:00,
2013-03-21 18:30:00,64.8,30.0,29.84,NNE,24,0.0,13.0,27,0.00,,,0.00,Wunderground v.1.13,2013-03-21 23:30:00,
2013-03-21 18:40:00,63.8,36.3,29.84,NNE,26,0.0,13.0,36,0.00,,,0.00,Wunderground v.1.13,2013-03-21 23:40:00,
2013-03-21 18:50:00,62.4,39.0,29.85,NNE,26,0.0,13.0,42,0.00,,,0.00,Wunderground v.1.13,2013-03-21 23:50:00,
2013-03-21 19:00:00,60.7,39.8,29.85,NNE,26,0.0,13.0,46,0.00,,,0.00,Wunderground v.1.13,2013-03-22 00:00:00,
2013-03-21 19:10:00,59.1,39.9,29.85,NNE,26,0.0,13.0,49,0.00,,,0.00,Wunderground v.1.13,2013-03-22 00:10:00,
2013-03-21 19:20:00,57.8,39.8,29.85,NNE,26,0.0,13.0,51,0.00,,,0.00,Wunderground v.1.13,2013-03-22 00:20:00,
2013-03-21 19:30:00,56.7,40.7,29.85,NNE,26,0.0,13.0,55,0.00,,,0.00,Wunderground v.1.13,2013-03-22 00:30:00,
2013-03-21 19:40:00,55.5,41.4,29.86,NNE,26,0.0,13.0,59,0.00,,,0.00,Wunderground v.1.13,2013-03-22 00:40:00,
2013-03-21 19:50:00,54.4,42.1,29.87,NNE,26,0.0,13.0,63,0.00,,,0.00,Wunderground v.1.13,2013-03-22 00:50:00,
2013-03-21 20:00:00,53.3,41.4,29.87,NNE,26,0.0,13.0,64,0.00,,,0.00,Wunderground v.1.13,2013-03-22 01:00:00,
2013-03-21 20:10:00,52.3,42.0,29.87,NNE,26,0.0,13.0,68,0.00,,,0.00,Wunderground v.1.13,2013-03-22 01:10:00,
2013-03-21 20:20:00,51.4,41.6,29.87,NNE,26,0.0,13.0,69,0.00,,,0.00,Wunderground v.1.13,2013-03-22 01:20:00,
2013-03-21 20:30:00,50.6,41.9,29.87,NNE,26,0.0,13.0,72,0.00,,,0.00,Wunderground v.1.13,2013-03-22 01:30:00,
2013-03-21 20:40:00,50.0,42.0,29.87,NNE,26,0.0,13.0,74,0.00,,,0.00,Wunderground v.1.13,2013-03-22 01:40:00,
2013-03-21 20:50:00,49.5,41.9,29.87,NNE,26,0.0,13.0,75,0.00,,,0.00,Wunderground v.1.13,2013-03-22 01:50:00,
2013-03-21 21:00:00,49.1,42.2,29.87,NNE,26,0.0,13.0,77,0.00,,,0.00,Wunderground v.1.13,2013-03-22 02:00:00,
2013-03-21 21:10:00,48.7,42.1,29.87,NNE,26,0.0,13.0,78,0.00,,,0.00,Wunderground v.1.13,2013-03-22 02:10:00,
2013-03-21 21:20:00,48.3,41.8,29.87,NNE,26,0.0,13.0,78,0.00,,,0.00,Wunderground v.1.13,2013-03-22 02:20:00,
2013-03-21 21:30:00,47.8,41.6,29.87,NNE,26,0.0,13.0,79,0.00,,,0.00,Wunderground v.1.13,2013-03-22 02:30:00,
2013-03-21 21:40:00,47.3,41.1,29.88,NNE,26,0.0,13.0,79,0.00,,,0.00,Wunderground v.1.13,2013-03-22 02:40:00,
2013-03-21 21:50:00,46.9,41.4,29.87,NNE,26,0.0,13.0,81,0.00,,,0.00,Wunderground v.1.13,2013-03-22 02:50:00,
2013-03-21 22:00:00,46.5,41.3,29.87,NNE,26,0.0,13.0,82,0.00,,,0.00,Wunderground v.1.13,2013-03-22 03:00:00,
2013-03-21 22:10:00,46.1,40.9,29.88,NNE,26,0.0,13.0,82,0.00,,,0.00,Wunderground v.1.13,2013-03-22 03:10:00,
2013-03-21 22:20:00,45.9,41.3,29.88,NNE,26,0.0,13.0,84,0.00,,,0.00,Wunderground v.1.13,2013-03-22 03:20:00,
2013-03-21 22:30:00,45.6,41.4,29.87,NNE,26,0.0,13.0,85,0.00,,,0.00,Wunderground v.1.13,2013-03-22 03:30:00,
2013-03-21 22:40:00,45.2,41.0,29.88,NNE,26,0.0,13.0,85,0.00,,,0.00,Wunderground v.1.13,2013-03-22 03:40:00,
2013-03-21 22:50:00,44.9,41.0,29.87,NNE,26,0.0,13.0,86,0.00,,,0.00,Wunderground v.1.13,2013-03-22 03:50:00,
2013-03-21 23:00:00,44.8,40.9,29.88,NNE,26,0.0,13.0,86,0.00,,,0.00,Wunderground v.1.13,2013-03-22 04:00:00,
2013-03-21 23:10:00,44.9,41.3,29.88,NNE,26,0.0,13.0,87,0.00,,,0.00,Wunderground v.1.13,2013-03-22 04:10:00,
2013-03-21 23:20:00,45.4,41.8,29.87,NNE,26,0.0,13.0,87,0.00,,,0.00,Wunderground v.1.13,2013-03-22 04:20:00,
2013-03-21 23:30:00,45.4,41.5,29.88,NNE,26,0.0,13.0,86,0.00,,,0.00,Wunderground v.1.13,2013-03-22 04:30:00,
2013-03-21 23:40:00,45.2,41.6,29.88,NNE,26,0.0,13.0,87,0.00,,,0.00,Wunderground v.1.13,2013-03-22 04:40:00,
2013-03-21 23:50:00,45.1,41.5,29.88,NNE,26,0.0,13.0,87,0.00,,,0.00,Wunderground v.1.13,2013-03-22 04:50:00,